Find Starlink 32431

NORAD ID: 61256 Int'l Des: 2024-175 Owner: SPXS Country: US Constellation: starlink operational
LEOCIRCULAR

リアルタイム位置

3D地球を読み込み中...

Starlink 32431について

説明を読み込み中...

次回通過

Passes for default location (London). Set your location on the main map for personalized predictions.

高度履歴

Loading altitude history...

軌道要素

1 61256U 24175P 26125.77520321 .00000467 00000-0 27913-4 0 9995
2 61256 53.1615 288.8823 0001276 87.8746 272.2400 15.30191045 90193
Epoch: May 5, 2026 • Age: 11 hours

現在のステータス

高度 475.3 km
速度 7.63 km/s
衛星直下点 7.96°N, 15.68°W
打ち上げ日 Sep 25, 2024
運用期間 1.6 years
タイプ internet

技術仕様

分類 Payload
質量 730.00 kg
乾燥質量 700.00 kg
総質量 730.00 kg
長さ 0.30 m
直径 4.10 m
スパン 29.00 m
形状 Box + pan
製造者 SPXS
バスタイプ Starlink V2M
フェーズステータス In Orbit
所有者/国 SPXS/US

Most Searched